| time (UTC) | temp F | wind direction | speed knots | gust knots | rain 1hr in | rain 24hr in | rain mn in | humidity % | barometer mb |
| 20260503234539 | 59 | 130 | 0.0 | 0.9 | 0.00 | 0.00 | 0.00 | 46 | 1016.1 |
| 20260503233038 | 61 | 130 | 0.0 | 0.9 | 0.00 | 0.00 | 0.00 | 42 | 1016.0 |
| 20260503231538 | 63 | 140 | 0.0 | 2.6 | 0.00 | 0.00 | 0.00 | 38 | 1015.9 |
| 20260503230037 | 66 | 124 | 0.0 | 1.7 | 0.00 | 0.00 | 0.00 | 35 | 1015.9 |
| 20260503224537 | 66 | 145 | 0.0 | 0.9 | 0.00 | 0.00 | 0.00 | 35 | 1015.9 |
| 20260503223039 | 66 | 151 | 0.0 | 2.6 | 0.00 | 0.00 | 0.00 | 33 | 1015.9 |
| 20260503221541 | 67 | 113 | 0.0 | 3.5 | 0.00 | 0.00 | 0.00 | 35 | 1015.8 |
| 20260503220044 | 66 | 114 | 0.0 | 3.5 | 0.00 | 0.00 | 0.00 | 34 | 1015.7 |
| 20260503214534 | 66 | 107 | 0.9 | 2.6 | 0.00 | 0.00 | 0.00 | 34 | 1015.8 |
| 20260503213039 | 66 | 150 | 0.9 | 4.3 | 0.00 | 0.00 | 0.00 | 34 | 1015.7 |
| 20260503211540 | 66 | 140 | 0.9 | 3.5 | 0.00 | 0.00 | 0.00 | 33 | 1015.7 |
| 20260503210032 | 67 | 115 | 0.9 | 5.2 | 0.00 | 0.00 | 0.00 | 34 | 1015.8 |
| 20260503204531 | 68 | 127 | 0.0 | 3.5 | 0.00 | 0.00 | 0.00 | 34 | 1015.6 |
| 20260503203034 | 68 | 131 | 0.0 | 2.6 | 0.00 | 0.00 | 0.00 | 34 | 1015.8 |
| 20260503201531 | 67 | 198 | 1.7 | 6.1 | 0.00 | 0.00 | 0.00 | 35 | 1015.8 |
| 20260503200034 | 66 | 162 | 0.0 | 4.3 | 0.00 | 0.00 | 0.00 | 34 | 1015.9 |
| 20260503194531 | 66 | 125 | 0.9 | 5.2 | 0.00 | 0.00 | 0.00 | 36 | 1016.0 |
| 20260503193028 | 67 | 149 | 1.7 | 5.2 | 0.00 | 0.00 | 0.00 | 34 | 1016.1 |
| 20260503191527 | 67 | 158 | 0.9 | 7.8 | 0.00 | 0.00 | 0.00 | 35 | 1016.4 |
| 20260503190027 | 67 | 122 | 0.9 | 5.2 | 0.00 | 0.00 | 0.00 | 37 | 1016.7 |
| 20260503184528 | 67 | 131 | 1.7 | 4.3 | 0.00 | 0.00 | 0.00 | 37 | 1016.7 |
| 20260503183034 | 67 | 188 | 0.0 | 3.5 | 0.00 | 0.00 | 0.00 | 40 | 1016.8 |
| 20260503181536 | 65 | 122 | 0.0 | 5.2 | 0.00 | 0.00 | 0.00 | 39 | 1016.9 |
| 20260503180024 | 65 | 108 | 2.6 | 7.0 | 0.00 | 0.00 | 0.00 | 37 | 1016.8 |
| 20260503174523 | 65 | 140 | 1.7 | 4.3 | 0.00 | 0.03 | 0.00 | 38 | 1017.0 |
| 20260503173040 | 64 | 70 | 1.7 | 7.0 | 0.00 | 0.03 | 0.00 | 38 | 1017.2 |
| 20260503171520 | 64 | 146 | 0.9 | 6.1 | 0.00 | 0.03 | 0.00 | 43 | 1017.1 |
| 20260503081514 | 47 | 108 | 0.0 | 0.9 | 0.00 | 0.11 | 0.00 | 85 | 1013.4 |
| 20260503071615 | 48 | 108 | 0.0 | 0.9 | 0.00 | 0.11 | 0.00 | 82 | 1012.7 |
| 20260503070109 | 47 | 92 | 0.0 | 0.9 | 0.00 | 0.11 | 0.00 | 83 | 1012.6 |
| 20260503060114 | 48 | 150 | 0.0 | 0.0 | 0.00 | 0.11 | 0.00 | 83 | 1012.3 |
| 20260503054552 | 48 | 150 | 0.0 | 0.0 | 0.00 | 0.11 | 0.00 | 82 | 1012.1 |
| 20260503053049 | 49 | 150 | 0.0 | 0.0 | 0.00 | 0.11 | 0.00 | 79 | 1012.2 |
| 20260503051548 | 50 | 150 | 0.0 | 0.0 | 0.00 | 0.11 | 0.00 | 78 | 1012.4 |
| 20260503050043 | 51 | 150 | 0.0 | 0.0 | 0.00 | 0.11 | 0.00 | 77 | 1012.3 |
| 20260503044607 | 52 | 150 | 0.0 | 0.0 | 0.00 | 0.11 | 0.00 | 74 | 1012.3 |
| 20260503043038 | 52 | 150 | 0.0 | 0.0 | 0.00 | 0.11 | 0.00 | 74 | 1012.3 |
| 20260503041535 | 53 | 150 | 0.0 | 0.0 | 0.00 | 0.11 | 0.00 | 73 | 1012.4 |
| 20260503040031 | 53 | 150 | 0.0 | 0.0 | 0.00 | 0.11 | 0.00 | 73 | 1012.3 |
| 20260503034532 | 52 | 150 | 0.0 | 0.0 | 0.00 | 0.11 | 0.11 | 73 | 1012.3 |
| 20260503033029 | 53 | 150 | 0.0 | 0.0 | 0.00 | 0.11 | 0.11 | 73 | 1012.2 |
| 20260503031528 | 53 | 150 | 0.0 | 0.0 | 0.00 | 0.11 | 0.11 | 72 | 1012.1 |
| 20260503030032 | 53 | 150 | 0.0 | 0.0 | 0.00 | 0.11 | 0.11 | 70 | 1012.1 |
| 20260503024527 | 54 | 150 | 0.0 | 0.0 | 0.00 | 0.11 | 0.11 | 69 | 1012.3 |
| 20260503023027 | 53 | 150 | 0.0 | 0.0 | 0.00 | 0.11 | 0.11 | 69 | 1012.4 |
| 20260503021526 | 53 | 150 | 0.0 | 0.0 | 0.00 | 0.11 | 0.11 | 73 | 1012.3 |
| 20260503020034 | 54 | 150 | 0.0 | 0.0 | 0.00 | 0.11 | 0.11 | 67 | 1012.4 |
| 20260503014525 | 54 | 150 | 0.0 | 0.0 | 0.00 | 0.11 | 0.11 | 68 | 1012.2 |
| 20260503013025 | 54 | 150 | 0.0 | 0.0 | 0.00 | 0.11 | 0.11 | 67 | 1011.9 |
| 20260503011524 | 54 | 150 | 0.0 | 0.0 | 0.00 | 0.11 | 0.11 | 67 | 1011.8 |
| 20260503010023 | 54 | 150 | 0.0 | 0.0 | 0.00 | 0.11 | 0.11 | 66 | 1011.9 |
| 20260503004523 | 54 | 150 | 0.0 | 0.0 | 0.00 | 0.11 | 0.11 | 65 | 1011.8 |
| 20260503003030 | 54 | 162 | 0.0 | 0.9 | 0.00 | 0.11 | 0.11 | 63 | 1011.5 |
| 20260503001522 | 55 | 143 | 0.0 | 0.0 | 0.00 | 0.11 | 0.11 | 60 | 1011.4 |
| 20260503000028 | 55 | 134 | 0.0 | 0.9 | 0.00 | 0.11 | 0.11 | 56 | 1011.3 |